Regional Weather Roundup
Issued by NWS

Home | Current Version | Previous Version | Text Only | Print | Product List | Glossary Off
Versions: 1 2 3 4 5 6 7 8 9 10 11 12 13 14 15 16 17 18 19 20 21 22 23 24 25 26 27 28 29 30 31 32 33 34 35 36 37 38 39 40 41 42 43 44 45 46 47 48 49 50

000
ASUS43 KLOT 221308
RWRIL

ILLINOIS REGIONAL WEATHER ROUNDUP
NATIONAL WEATHER SERVICE CHICAGO/ROMEOVILLE IL
800 AM CDT TUE AUG 22 2017

NOTE: "FAIR" INDICATES FEW OR NO CLOUDS BELOW 12,000 FEET WITH NO
SIGNIFICANT WEATHER AND/OR OBSTRUCTIONS TO VISIBILITY.

* THESE STATIONS ARE NOT UNDER NWS QUALITY CONTROL. THEY ALSO MAY NOT
  REPORT WEATHER SUCH AS PRECIPITATION OR FOG.

ILZ001-002-007-009-015-016-024-221400-
NORTHWEST ILLINOIS

CITY           SKY/WX    TMP DP  RH WIND       PRES   REMARKS
MOLINE         CLOUDY    69  64  84 W9        29.94R
STERLING*      CLOUDY    68  65  90 W12       29.92S
SAVANNA*       CLOUDY    67  64  89 W9        29.93R
$$

ILZ003-004-008-010-011-017-018-221400-
NORTH CENTRAL ILLINOIS

CITY           SKY/WX    TMP DP  RH WIND       PRES   REMARKS
ROCKFORD       CLOUDY    69  64  84 W8        29.91R
FREEPORT*        N/A    N/A N/A N/A MISG        N/A
ROCHELLE*      CLOUDY    67  66  96 W8        29.92R
DE KALB*       CLOUDY    68  66  94 W10       29.91R
PERU*          CLOUDY    68  66  95 W7        29.92S
$$

ILZ005-006-012>014-019>023-221400-
NORTHEAST ILLINOIS

CITY           SKY/WX    TMP DP  RH WIND       PRES   REMARKS
CHICAGO-OHARE  CLOUDY    71  66  84 SW12      29.87S
CHICAGO-MIDWAY CLOUDY    71  68  90 W13       29.88S
AURORA         CLOUDY    69  68  96 SW9       29.90S
LANSING*       PTSUNNY   70  66  86 W8        29.89F
JOLIET*        CLOUDY    71  69  95 SW7       29.90S
WAUKEGAN       PTSUNNY   70  65  84 VRB6      29.85R
DUPAGE AIRPORT CLOUDY    69  69 100 SW9       29.89R
KANKAKEE*      CLOUDY    69  68  98 CALM      29.93S
WHEELING       CLOUDY    71  66  84 W8        29.88S
MORRIS*        CLOUDY    69  67  95 SW6       29.90S
ROMEOVILLE*    CLOUDY    69  65  88 W8        29.89F
NORTHERLY ISL    N/A     71  67  87 SW5         N/A
$$

LMZ740>746-221400-
SOUTHERN LAKE MICHIGAN

STATION/POSITION SKY/WX   TEMP    WIND        PRES    VSBY  WAVE
                          AIR SEA DIR/SP/G                  HT/PER
                          (F)     (DEG/KT/KT) (MB)    (MI)  (FT/S)
SOUTHERN BUOY              72 71  290/ 17/ 19 1009.4R         3/ 6
WILMETTE HARBOR            72 74  250/ 12/ 16   N/A           1/ 3
HARRISON CRIB              73     240/ 15/ 18   N/A
CALUMET HARBOR             70     220/  3/  6 1011.3R
BURNS HARBOR               71     230/ 12/ 19 1012.9R
MICHIGAN CITY              70     210/ 17/ 19   N/A
MICHIGAN CITY 6N           72 74  240/ 17/ 21   N/A           4/ 4
ST. JOSEPH                 72 73  250/ 19/ 25 1011.1          5/ 5
$$

ILZ025>027-034>036-040-047-049-050-058-095>099-221400-
WEST-CENTRAL ILLINOIS

CITY           SKY/WX    TMP DP  RH WIND       PRES   REMARKS
QUINCY         CLOUDY    66  64  93 W6        29.99R
GALESBURG*     CLOUDY    67  66  99 W6        29.97R
MACOMB*        CLOUDY    67  65  93 NW8       29.99R
JACKSONVILLE*  CLOUDY    68  67  98 W5        29.96R
PITTSFIELD*    CLOUDY    68  68  99 N9        29.99R
$$

ILZ028>032-037-038-041>044-048-051>054-059>061-221400-
CENTRAL ILLINOIS

CITY           SKY/WX    TMP DP  RH WIND       PRES   REMARKS
PONTIAC        CLOUDY    70  69  98 W5        29.94F
BLOOMINGTON    CLOUDY    67  66  97 W8        29.95S
DECATUR        CLOUDY    69  68  96 S8        29.92F
PEORIA         CLOUDY    69  68  96 CALM      29.94S
LACON*         CLOUDY    68  68 100 CALM      29.93R
LINCOLN*       CLOUDY    69  69 100 CALM      29.95R
SPRINGFIELD    CLOUDY    70  69  97 W6        29.94R
TAYLORVILLE    DRIZZLE   69  69 100 S6        29.94F
$$

ILZ033-039-045-046-055>057-062-063-221400-
EAST-CENTRAL ILLINOIS

CITY           SKY/WX    TMP DP  RH WIND       PRES   REMARKS
CHAMPAIGN      LGT RAIN  69  68  96 S5        29.92F
RANTOUL*       LGT RAIN  70  69  99 S3        29.92F
MATTOON        LGT RAIN  70  70 100 S3        29.95F
PARIS*         DRIZZLE   70  70  99 CALM      29.96F
$$

ILZ079-100>102-221400-
SOUTHWEST ILLINOIS

CITY           SKY/WX    TMP DP  RH WIND       PRES   REMARKS
ALTON          LGT RAIN  70  70 100 CALM      29.96F
BELLEVILLE     CLOUDY    71  70  95 SE3       29.99R
CAHOKIA*       LGT RAIN  73  70  90 S6        29.97S
SPARTA*        CLOUDY    73  69  85 N6        30.00R
$$

ILZ064>066-069>071-074>076-080>082-084>086-088>090-092>094-221400-
SOUTH-CENTRAL ILLINOIS

CITY           SKY/WX    TMP DP  RH WIND       PRES   REMARKS
CARBONDALE     CLOUDY    79  75  87 SW10      29.98R HX  83
CAIRO*         MOSUNNY   78  75  91 SW8       30.00S HX  81
EFFINGHAM*     CLOUDY    71  71 100 CALM      29.98S
MARION         PTSUNNY   79  79 100 SW9       29.99S HX  83
MT. VERNON     LGT RAIN  72  70  93 CALM      29.99R
CENTRALIA*     CLOUDY    73  72  97 CALM      29.98R
SALEM*         CLOUDY    72  70  93 CALM      30.00R THUNDER
METROPOLIS*    MOSUNNY   80  75  84 SW6       30.00S HX  86
$$

ILZ067-068-072-073-078-083-087-091-221400-
SOUTHEAST ILLINOIS

CITY           SKY/WX    TMP DP  RH WIND       PRES   REMARKS
LAWRENCEVILLE  CLOUDY    75  72  90 N9        29.98R
FLORA*         CLOUDY    73  71  93 CALM      29.98R
FAIRFIELD*     HVY RAIN  72  71  98 CALM      29.97S
HARRISBURG*    CLOUDY    79  76  90 SW8       29.98S HX  83
ROBINSON*      CLOUDY    72  69  92 NW5       29.98S
CARMI*         MOSUNNY   78  76  95 SW6       29.97S HX  80
$$

ABBREVIATIONS USED IN REMARKS
   TC - TEMPERATURE IN CELSIUS
  WCI - WIND CHILL INDEX
   HX - HEAT INDEX
  VSB - VISIBILITY
$$





USA.gov is the U.S. government's official web portal to all federal, state and local government web resources and services.